Regional Weather Roundup
Issued by NWS

Home | Current Version | Previous Version | Text Only | Print | Product List | Glossary Off
Versions: 1 2 3 4 5 6 7 8 9 10 11 12 13 14 15 16 17 18 19 20 21 22 23 24 25 26 27 28 29 30 31 32 33 34 35 36 37 38 39 40 41 42 43 44 45 46 47 48 49 50

000
ASUS43 KFSD 290802
RWRSD

WEATHER ROUNDUP FOR SOUTH DAKOTA
NATIONAL WEATHER SERVICE SIOUX FALLS SD
300 AM CDT MON AUG 29 2016

NOTE: "FAIR" INDICATES FEW OR NO CLOUDS BELOW 12,000 FEET WITH NO
SIGNIFICANT WEATHER AND/OR OBSTRUCTIONS TO VISIBILITY.


SDZ001>005-009-010-012>017-290900-
NORTHWEST AND NORTH CENTRAL SOUTH DAKOTA

CITY           SKY/WX    TMP DP  RH WIND       PRES   REMARKS
BUFFALO          N/A     66  50  56 NE14      30.08R
FAITH            N/A     63  50  62 N9        30.06S
MOBRIDGE       CLEAR     67  57  70 NE14      30.00R
$$

SDZ012>016-024>037-041>051-057-063-072>074-290900-
SOUTHWEST AND SOUTH CENTRAL SOUTH DAKOTA

CITY           SKY/WX    TMP DP  RH WIND       PRES   REMARKS
RAPID CTY ARPT CLEAR     65  48  54 N12       30.08S
PIERRE         CLEAR     73  58  59 S7        30.01R
CUSTER         CLEAR     59  38  45 NW6       30.25F
ELLSWORTH AFB  CLEAR    N/A N/A N/A NW5         N/A
PHILIP         CLEAR     63  58  83 W3        30.04R
PINE RIDGE     CLEAR     65  59  81 SW7       30.11S
WINNER         FAIR      74  63  68 S15       30.07R
$$

SDZ004>011-016>023-039-040-290900-
NORTHEAST SOUTH DAKOTA

CITY           SKY/WX    TMP DP  RH WIND       PRES   REMARKS
ABERDEEN       CLEAR     71  67  87 S8        30.01S
WATERTOWN      CLEAR     73  70  90 S9        30.08R
BROOKINGS        N/A    N/A N/A N/A MISG        N/A
$$

SDZ017-020-022-023-036>040-048>070-290900-
SOUTHEAST SOUTH DAKOTA

CITY           SKY/WX    TMP DP  RH WIND       PRES   REMARKS
SIOUX FALLS    CLEAR     70  32  24 S8        30.11S
HURON          CLEAR     73  70  90 S9        30.04S
CHAMBERLAIN    CLEAR     74  64  70 S8        30.06R
MITCHELL       CLEAR     70  68  93 SE7       30.07R
YANKTON        CLEAR     70  64  83 SE6       30.10R
$$

ABBREVIATIONS USED IN REMARKS
   TC - TEMPERATURE IN CELSIUS
  WCI - WIND CHILL INDEX
   HX - HEAT INDEX
  VSB - VISIBILITY





USA.gov is the U.S. government's official web portal to all federal, state and local government web resources and services.